| time (UTC) | temp C | wind direction | speed KPH | gust KPH | rain 1hr cm | rain 24hr cm | rain mn cm | humidity % | barometer mb |
| 20260505212703 | 10 | 0 | 0.0 | 0.0 | 0.00 | 1.30 | 1.30 | 93 | 1004.8 |
| 20260505212019 | 11 | 0 | 0.0 | 0.0 | 0.00 | 1.30 | 1.30 | 93 | 1004.7 |
| 20260505210903 | 11 | 0 | 0.0 | 0.0 | 0.00 | 1.32 | 1.30 | 92 | 1005.2 |
| 20260505210005 | 11 | 0 | 0.0 | 0.0 | 0.00 | 1.32 | 1.30 | 92 | 1005.0 |
| 20260505205405 | 11 | 0 | 0.0 | 0.0 | 0.00 | 1.32 | 1.30 | 92 | 1005.4 |
| 20260505204503 | 11 | 0 | 0.0 | 0.0 | 0.00 | 1.32 | 1.30 | 92 | 1005.2 |
| 20260505203603 | 11 | 0 | 0.0 | 0.0 | 0.00 | 1.32 | 1.30 | 92 | 1005.3 |
| 20260505202703 | 11 | 0 | 0.0 | 0.0 | 0.00 | 1.32 | 1.30 | 92 | 1005.2 |
| 20260505201803 | 11 | 0 | 0.0 | 0.0 | 0.00 | 1.35 | 1.30 | 92 | 1005.3 |
| 20260505200903 | 11 | 0 | 0.0 | 0.0 | 0.00 | 1.40 | 1.30 | 92 | 1005.0 |
| 20260505200005 | 11 | 0 | 0.0 | 0.0 | 0.00 | 1.40 | 1.30 | 92 | 1005.2 |
| 20260505195403 | 11 | 0 | 0.0 | 0.0 | 0.00 | 1.40 | 1.30 | 92 | 1005.2 |
| 20260505194503 | 11 | 0 | 0.0 | 0.0 | 0.00 | 1.40 | 1.30 | 92 | 1005.0 |
| 20260505193603 | 11 | 0 | 0.0 | 0.0 | 0.00 | 1.42 | 1.30 | 92 | 1004.9 |
| 20260505192705 | 11 | 0 | 0.0 | 0.0 | 0.00 | 1.42 | 1.30 | 92 | 1005.0 |
| 20260505191805 | 11 | 0 | 0.0 | 0.0 | 0.00 | 1.45 | 1.30 | 91 | 1005.0 |
| 20260505190903 | 11 | 0 | 0.0 | 0.0 | 0.00 | 1.45 | 1.30 | 91 | 1004.8 |
| 20260505185403 | 11 | 0 | 0.0 | 0.0 | 0.00 | 1.45 | 1.30 | 91 | 1004.8 |
| 20260505184503 | 11 | 0 | 0.0 | 0.0 | 0.00 | 1.45 | 1.30 | 91 | 1004.8 |
| 20260505183603 | 11 | 0 | 0.0 | 0.0 | 0.00 | 1.45 | 1.30 | 90 | 1004.8 |
| 20260505182703 | 11 | 0 | 0.0 | 0.0 | 0.00 | 1.45 | 1.30 | 90 | 1004.8 |
| 20260505181805 | 11 | 0 | 0.0 | 0.0 | 0.00 | 1.45 | 1.30 | 90 | 1004.6 |
| 20260505181116 | 12 | 0 | 0.0 | 0.0 | 0.00 | 1.45 | 1.30 | 90 | 1004.8 |
| 20260505180003 | 12 | 0 | 0.0 | 0.0 | 0.00 | 1.47 | 1.30 | 89 | 1004.8 |
| 20260505175405 | 12 | 0 | 0.0 | 0.0 | 0.00 | 1.47 | 1.30 | 89 | 1004.8 |
| 20260505174503 | 12 | 0 | 0.0 | 0.0 | 0.00 | 1.47 | 1.30 | 89 | 1004.9 |
| 20260505173603 | 12 | 0 | 0.0 | 0.0 | 0.00 | 1.47 | 1.30 | 88 | 1004.8 |
| 20260505172703 | 12 | 0 | 0.0 | 0.0 | 0.00 | 1.47 | 1.30 | 86 | 1004.9 |
| 20260505171805 | 12 | 0 | 0.0 | 0.0 | 0.00 | 1.50 | 1.30 | 84 | 1004.8 |
| 20260505171119 | 12 | 0 | 0.0 | 0.0 | 0.00 | 1.50 | 1.30 | 84 | 1004.8 |
| 20260505170003 | 12 | 0 | 0.0 | 0.0 | 0.00 | 1.50 | 1.30 | 83 | 1004.8 |
| 20260505165403 | 13 | 0 | 0.0 | 0.0 | 0.00 | 1.50 | 1.30 | 84 | 1004.8 |
| 20260505164503 | 12 | 0 | 0.0 | 0.0 | 0.00 | 1.50 | 1.30 | 82 | 1005.2 |
| 20260505163603 | 12 | 0 | 0.0 | 0.0 | 0.00 | 1.50 | 1.30 | 83 | 1004.7 |
| 20260505162703 | 12 | 0 | 0.0 | 0.0 | 0.00 | 1.50 | 1.30 | 83 | 1004.9 |
| 20260505161805 | 12 | 0 | 0.0 | 0.0 | 0.00 | 1.50 | 1.30 | 83 | 1005.0 |
| 20260505160903 | 12 | 0 | 0.0 | 0.0 | 0.00 | 1.50 | 1.30 | 83 | 1004.9 |
| 20260505152703 | 12 | 0 | 0.0 | 0.0 | 0.00 | 1.50 | 1.30 | 83 | 1005.2 |
| 20260505152019 | 12 | 0 | 0.0 | 0.0 | 0.00 | 1.50 | 1.30 | 83 | 1005.0 |
| 20260505150903 | 12 | 0 | 0.0 | 0.0 | 0.00 | 1.50 | 1.30 | 83 | 1005.2 |
| 20260505140218 | 12 | 207 | 0.0 | 1.6 | 0.00 | 1.50 | 1.30 | 83 | 1005.4 |
| 20260505124720 | 12 | 0 | 0.0 | 0.0 | 0.00 | 1.50 | 1.30 | 82 | 1005.7 |
| 20260505123604 | 12 | 70 | 0.0 | 1.6 | 0.00 | 1.50 | 1.30 | 83 | 1005.8 |
| 20260505122703 | 12 | 164 | 0.0 | 1.6 | 0.00 | 1.50 | 1.30 | 84 | 1005.9 |
| 20260505121805 | 12 | 218 | 0.0 | 1.6 | 0.00 | 1.50 | 1.30 | 86 | 1006.0 |
| 20260505120903 | 11 | 0 | 0.0 | 0.0 | 0.00 | 1.50 | 1.30 | 86 | 1006.0 |
| 20260505120004 | 11 | 0 | 0.0 | 0.0 | 0.00 | 1.50 | 1.30 | 86 | 1006.1 |
| 20260505115403 | 11 | 147 | 0.0 | 1.6 | 0.00 | 1.50 | 1.30 | 86 | 1006.0 |
| 20260505114503 | 12 | 0 | 0.0 | 0.0 | 0.00 | 1.50 | 1.30 | 86 | 1005.9 |
| 20260505113603 | 12 | 203 | 0.0 | 6.4 | 0.00 | 1.50 | 1.30 | 87 | 1006.0 |
| 20260505112703 | 12 | 217 | 0.0 | 6.4 | 0.00 | 1.50 | 1.30 | 86 | 1006.0 |
| 20260505111805 | 12 | 146 | 0.0 | 1.6 | 0.00 | 1.50 | 1.30 | 87 | 1006.0 |
| 20260505110903 | 12 | 221 | 0.0 | 1.6 | 0.00 | 1.50 | 1.30 | 85 | 1006.0 |
| 20260505110221 | 12 | 127 | 0.0 | 4.8 | 0.00 | 1.50 | 1.30 | 85 | 1006.2 |
| 20260505101805 | 12 | 140 | 0.0 | 1.6 | 0.00 | 1.50 | 1.30 | 85 | 1006.0 |
| 20260505100903 | 12 | 0 | 0.0 | 0.0 | 0.00 | 1.50 | 1.30 | 84 | 1006.3 |
| 20260505100005 | 12 | 252 | 0.0 | 1.6 | 0.00 | 1.50 | 1.30 | 82 | 1006.3 |
| 20260505095405 | 12 | 1 | 0.0 | 3.2 | 0.00 | 1.50 | 1.30 | 81 | 1006.5 |
| 20260505094719 | 12 | 0 | 0.0 | 0.0 | 0.00 | 1.50 | 1.30 | 80 | 1006.4 |
| 20260505093603 | 12 | 333 | 0.0 | 3.2 | 0.00 | 1.50 | 1.30 | 79 | 1006.4 |
| 20260505092703 | 12 | 134 | 0.0 | 1.6 | 0.00 | 1.50 | 1.30 | 80 | 1006.2 |
| 20260505091803 | 12 | 139 | 0.0 | 1.6 | 0.00 | 1.50 | 1.30 | 80 | 1006.1 |
| 20260505091121 | 12 | 155 | 0.0 | 4.8 | 0.00 | 1.50 | 1.30 | 80 | 1006.2 |
| 20260505090003 | 12 | 113 | 0.0 | 1.6 | 0.00 | 1.50 | 1.30 | 80 | 1006.0 |
| 20260505085405 | 12 | 0 | 0.0 | 0.0 | 0.00 | 1.50 | 1.30 | 80 | 1006.0 |
| 20260505084503 | 12 | 175 | 0.0 | 3.2 | 0.00 | 1.50 | 1.30 | 79 | 1006.0 |
| 20260505083605 | 12 | 140 | 0.0 | 1.6 | 0.00 | 1.50 | 1.30 | 79 | 1005.9 |
| 20260505082703 | 12 | 140 | 0.0 | 1.6 | 0.00 | 1.50 | 1.30 | 80 | 1005.9 |
| 20260505081803 | 12 | 0 | 0.0 | 0.0 | 0.00 | 1.50 | 1.30 | 78 | 1005.9 |
| 20260505080905 | 11 | 0 | 0.0 | 0.0 | 0.00 | 1.50 | 1.30 | 81 | 1005.8 |
| 20260505080219 | 11 | 0 | 0.0 | 0.0 | 0.00 | 1.50 | 1.30 | 84 | 1006.0 |
| 20260505075403 | 11 | 0 | 0.0 | 0.0 | 0.00 | 1.50 | 1.30 | 85 | 1006.0 |
| 20260505074503 | 11 | 0 | 0.0 | 0.0 | 0.00 | 1.50 | 1.30 | 86 | 1005.9 |
| 20260505073818 | 11 | 0 | 0.0 | 0.0 | 0.00 | 1.50 | 1.30 | 88 | 1006.0 |
| 20260505072917 | 10 | 315 | 0.0 | 1.6 | 0.00 | 1.50 | 1.30 | 91 | 1006.0 |
| 20260505071803 | 10 | 348 | 0.0 | 3.2 | 0.00 | 1.50 | 1.30 | 91 | 1006.0 |
| 20260505070905 | 10 | 11 | 0.0 | 1.6 | 0.00 | 1.50 | 1.30 | 91 | 1006.1 |
| 20260505070003 | 10 | 347 | 0.0 | 1.6 | 0.00 | 1.50 | 1.30 | 91 | 1006.0 |
| 20260505065619 | 10 | 352 | 0.0 | 1.6 | 0.00 | 1.50 | 1.30 | 90 | 1005.8 |
| 20260505064505 | 10 | 282 | 0.0 | 1.6 | 0.00 | 1.50 | 1.30 | 92 | 1006.0 |
| 20260505063603 | 10 | 0 | 0.0 | 0.0 | 0.00 | 1.50 | 1.30 | 93 | 1006.0 |
| 20260505062704 | 10 | 324 | 0.0 | 1.6 | 0.00 | 1.50 | 1.30 | 93 | 1005.9 |
| 20260505061803 | 9 | 0 | 0.0 | 0.0 | 0.00 | 1.50 | 1.30 | 94 | 1006.1 |
| 20260505060905 | 9 | 353 | 0.0 | 1.6 | 0.00 | 1.50 | 1.30 | 94 | 1006.1 |
| 20260505060005 | 9 | 0 | 0.0 | 0.0 | 0.00 | 1.50 | 1.30 | 94 | 1006.1 |
| 20260505055618 | 9 | 0 | 0.0 | 0.0 | 0.00 | 1.50 | 1.30 | 94 | 1006.0 |
| 20260505054503 | 9 | 0 | 0.0 | 0.0 | 0.00 | 1.50 | 1.30 | 95 | 1006.0 |
| 20260505053605 | 9 | 0 | 0.0 | 0.0 | 0.00 | 1.50 | 1.30 | 95 | 1006.0 |
| 20260505052703 | 8 | 0 | 0.0 | 0.0 | 0.00 | 1.50 | 1.30 | 95 | 1005.7 |
| 20260505051805 | 8 | 0 | 0.0 | 0.0 | 0.00 | 1.50 | 1.30 | 95 | 1005.8 |
| 20260505050904 | 8 | 0 | 0.0 | 0.0 | 0.00 | 1.50 | 1.30 | 95 | 1005.8 |
| 20260505040905 | 9 | 0 | 0.0 | 0.0 | 0.56 | 1.50 | 1.30 | 95 | 1006.0 |
| 20260505040218 | 9 | 0 | 0.0 | 0.0 | 0.64 | 1.50 | 1.30 | 95 | 1006.0 |
| 20260505035405 | 9 | 0 | 0.0 | 0.0 | 0.69 | 1.47 | 1.27 | 95 | 1006.2 |
| 20260505034505 | 10 | 345 | 0.0 | 1.6 | 0.74 | 1.45 | 1.24 | 95 | 1006.4 |
| 20260505033603 | 9 | 10 | 0.0 | 3.2 | 0.71 | 1.35 | 1.14 | 95 | 1006.6 |
| 20260505032704 | 10 | 0 | 0.0 | 0.0 | 0.66 | 1.24 | 1.04 | 95 | 1006.1 |
| 20260505032019 | 10 | 341 | 0.0 | 1.6 | 0.61 | 1.14 | 0.94 | 95 | 1006.0 |
| 20260505030903 | 10 | 14 | 0.0 | 1.6 | 0.43 | 0.94 | 0.74 | 95 | 1006.9 |
| 20260505030004 | 10 | 315 | 0.0 | 1.6 | 0.38 | 0.84 | 0.64 | 95 | 1006.9 |
| 20260505025617 | 10 | 0 | 0.0 | 0.0 | 0.33 | 0.79 | 0.58 | 95 | 1007.1 |
| 20260505024503 | 10 | 0 | 0.0 | 0.0 | 0.30 | 0.71 | 0.51 | 95 | 1006.9 |
| 20260505023603 | 10 | 0 | 0.0 | 0.0 | 0.28 | 0.64 | 0.43 | 95 | 1007.0 |
| 20260505022919 | 10 | 4 | 0.0 | 1.6 | 0.23 | 0.58 | 0.38 | 95 | 1007.1 |
| 20260505021803 | 10 | 0 | 0.0 | 0.0 | 0.20 | 0.53 | 0.33 | 95 | 1007.4 |
| 20260505020903 | 10 | 0 | 0.0 | 0.0 | 0.18 | 0.51 | 0.30 | 95 | 1007.1 |
| 20260505020005 | 10 | 0 | 0.0 | 0.0 | 0.13 | 0.46 | 0.25 | 95 | 1007.0 |
| 20260505015403 | 10 | 0 | 0.0 | 0.0 | 0.13 | 0.46 | 0.25 | 95 | 1007.0 |
| 20260505014503 | 10 | 335 | 0.0 | 1.6 | 0.08 | 0.41 | 0.20 | 95 | 1007.1 |
| 20260505013603 | 10 | 316 | 0.0 | 1.6 | 0.03 | 0.36 | 0.15 | 94 | 1007.0 |
| 20260505012703 | 10 | 0 | 0.0 | 0.0 | 0.00 | 0.33 | 0.13 | 94 | 1007.3 |
| 20260505011803 | 10 | 0 | 0.0 | 0.0 | 0.00 | 0.33 | 0.13 | 94 | 1007.3 |
| 20260505010903 | 10 | 325 | 0.0 | 1.6 | 0.00 | 0.33 | 0.13 | 94 | 1007.1 |
| 20260505010221 | 10 | 0 | 0.0 | 0.0 | 0.00 | 0.33 | 0.13 | 94 | 1007.1 |
| 20260505005403 | 10 | 0 | 0.0 | 0.0 | 0.00 | 0.33 | 0.13 | 94 | 1007.4 |
| 20260505004505 | 10 | 0 | 0.0 | 0.0 | 0.00 | 0.33 | 0.13 | 94 | 1007.4 |
| 20260505003819 | 10 | 360 | 0.0 | 1.6 | 0.00 | 0.33 | 0.13 | 94 | 1007.6 |
| 20260505002918 | 10 | 7 | 0.0 | 1.6 | 0.00 | 0.33 | 0.13 | 94 | 1007.9 |
| 20260505001805 | 10 | 0 | 0.0 | 0.0 | 0.03 | 0.33 | 0.13 | 94 | 1007.9 |
| 20260505000903 | 10 | 0 | 0.0 | 0.0 | 0.03 | 0.33 | 0.13 | 94 | 1008.2 |
| 20260505000218 | 10 | 0 | 0.0 | 0.0 | 0.03 | 0.33 | 0.13 | 94 | 1008.3 |
| 20260504235405 | 10 | 0 | 0.0 | 0.0 | 0.05 | 0.33 | 0.13 | 94 | 1008.4 |
| 20260504234505 | 10 | 0 | 0.0 | 0.0 | 0.10 | 0.33 | 0.13 | 94 | 1008.6 |
| 20260504233819 | 10 | 0 | 0.0 | 0.0 | 0.10 | 0.33 | 0.13 | 94 | 1008.7 |
| 20260504232703 | 10 | 0 | 0.0 | 0.0 | 0.13 | 0.33 | 0.13 | 94 | 1008.9 |
| 20260504231803 | 10 | 0 | 0.0 | 0.0 | 0.10 | 0.30 | 0.10 | 93 | 1009.0 |
| 20260504230905 | 10 | 0 | 0.0 | 0.0 | 0.10 | 0.30 | 0.10 | 93 | 1009.2 |
| 20260504230220 | 10 | 18 | 0.0 | 1.6 | 0.10 | 0.30 | 0.10 | 93 | 1009.4 |
| 20260504225615 | 10 | 9 | 0.0 | 3.2 | 0.08 | 0.28 | 0.08 | 93 | 1009.5 |
| 20260504224505 | 10 | 348 | 0.0 | 1.6 | 0.03 | 0.23 | 0.03 | 93 | 1009.6 |
| 20260504223605 | 10 | 5 | 0.0 | 1.6 | 0.03 | 0.23 | 0.03 | 93 | 1009.6 |
| 20260504222705 | 10 | 0 | 0.0 | 0.0 | 0.00 | 0.20 | 0.00 | 93 | 1009.8 |
| 20260504222021 | 10 | 0 | 0.0 | 0.0 | 0.00 | 0.20 | 0.00 | 93 | 1009.7 |
| 20260504221120 | 10 | 0 | 0.0 | 0.0 | 0.03 | 0.20 | 0.00 | 92 | 1009.7 |
| 20260504220220 | 10 | 0 | 0.0 | 0.0 | 0.03 | 0.20 | 0.00 | 92 | 1009.8 |
| 20260504215405 | 10 | 0 | 0.0 | 0.0 | 0.03 | 0.20 | 0.20 | 92 | 1009.9 |
| 20260504214719 | 10 | 0 | 0.0 | 0.0 | 0.03 | 0.20 | 0.20 | 92 | 1010.1 |
| 20260504213604 | 10 | 0 | 0.0 | 0.0 | 0.03 | 0.20 | 0.20 | 91 | 1010.1 |